Weather in Palandoken

Turkey     39°51′02″N   41°11′33″E
temp.,
°C
wind,
m/s
gust,
m/s
humid.,
%
clouds,
%
prec.,
mm/h
press.,
hPa
HPBL,
m
25 january, mon
mon2500:00−10s224499 0.0 103121
03:00−9s2252100 0.0 103021
06:00−11s224981 0.0 103021
09:00−11s224942 0.0 103021
12:00−6s22640 0.0 102861
15:00−7s22660 0.0 102523
18:00−12s22530 0.0 102821
21:00−11s225237 0.0 102821
26 january, tue
tue2600:00−10s2255100 0.0 102921
03:00−10ssw2258100 0.0 102921
06:00−12ssw225867 0.0 103021
09:00−10ssw225933 0.0 103121
12:00−5ssw22698 0.0 102981
15:00−6s22764 0.0 102728
18:00−10s22631 0.0 102921
21:00−9s226725 0.0 102921
27 january, wed
wed2700:00−9sse227099 0.0 102921
03:00−9sse226799 0.0 102821
06:00−9sse236598 0.0 102721
09:00−7sse336796 0.0 102626
12:00−5sse2372100 0.0 102483
15:00−4sse2275100 0.0 102182
18:00−8sse3363100 0.0 102227
21:00−9se3361100 0.0 102124
28 january, thu
thu2800:00−9se3361100 0.0 102023
03:00−9sse3364100 0.0 101928
06:00−9sse4781100 0.0 1018153
09:00−8sse4985100 0.0 1017296
12:00−4sse4128185 0.0 1014793
15:00−5se2108976 0.0 1011686
18:00−7se379597 0.1 1013267
21:00−6ssw289598 4.1 1013476
29 january, fri
fri2900:00−10sse239679 0.8 101521
03:00−12sse229775 0.8 101522
06:00−9se2394100 0.1 101531
09:00−7se3494100 0.8 1015227
12:00−6ese2395100 2.1 1012223
15:00−5e1195100 4.4 1010149
18:00−7e2397100 1.8 101053
21:00−7ene1197100 3.6 101121